Wind_Speed
10 10 10 11 11 12 13 13 12 11 11 10 10 10 9 9 10 11 11 11 11 11 11 11 11 10 10 9 9 9 10 10 10 10 9 9 9 9 9 9 8 8 7
10 10 11 12 12 12 13 13 12 12 11 11 10 10 10 10 10 10 10 11 11 11 11 12 11 10 10 10 10 10 10 10 10 10 9 9 9 9 9 8 8 7 7
10 10 11 11 13 13 13 13 13 12 12 11 11 10 10 10 10 10 11 11 11 11 11 11 11 11 11 11 11 11 10 10 10 10 9 9 9 9 8 8 7 7 7
10 11 11 12 12 13 14 14 13 12 12 12 12 11 11 11 11 10 10 11 11 10 10 10 10 10 10 10 11 11 10 10 10 10 9 9 9 9 8 8 7 7 7
10 11 12 12 12 12 13 13 13 12 12 12 11 11 11 11 11 10 10 11 10 10 10 10 10 10 10 11 11 11 10 10 10 9 9 9 9 8 8 7 7 6 6
10 11 11 12 12 12 12 12 12 12 12 12 11 11 11 11 11 11 11 10 10 10 10 10 10 10 10 10 10 10 10 9 9 9 9 9 8 8 8 7 7 6 6
10 11 11 11 11 12 11 11 11 12 12 12 11 12 12 11 11 10 10 10 9 9 10 10 10 9 9 9 9 9 9 9 9 9 9 8 8 7 7 7 6 6 5
10 11 11 11 11 11 11 11 11 11 11 11 11 11 11 11 11 10 9 9 9 9 9 9 10 9 9 9 9 8 8 8 8 8 8 7 7 6 6 6 6 5 5
10 11 10 11 11 11 11 11 11 11 12 11 11 11 10 10 10 10 9 9 9 9 9 9 9 9 9 9 9 8 7 7 7 6 6 6 6 5 5 5 4 4 4
11 10 10 11 11 10 10 10 10 11 11 11 10 10 10 10 9 10 9 9 9 9 9 9 9 9 8 8 8 8 7 6 5 5 5 5 5 4 4 4 3 3 3
11 10 10 11 11 11 10 10 10 10 10 10 10 10 10 10 10 10 9 9 8 8 8 8 8 7 7 7 7 7 7 6 5 5 4 4 4 4 3 2 2 2 2
12 12 11 11 10 11 11 11 11 10 10 10 9 9 9 10 9 9 9 8 8 7 7 7 7 6 6 6 6 6 5 5 4 3 3 3 3 3 2 1 1 1 1
13 12 11 11 10 10 10 11 10 10 10 9 9 8 8 9 9 9 8 8 7 7 7 7 6 6 5 5 5 4 4 4 3 2 2 2 2 2 1 1 1 0 0
12 12 11 11 10 9 10 10 10 10 10 9 9 8 8 8 8 8 8 8 7 7 7 6 5 4 4 3 3 3 2 2 2 2 2 2 1 1 1 1 1 1 1
12 11 11 10 10 10 10 10 10 9 9 9 8 8 7 7 7 7 7 6 6 5 5 4 3 3 3 3 2 1 1 1 0 0 0 0 0 1 2 2 2 2 3
12 12 11 9 9 9 9 10 9 9 9 8 8 7 7 6 6 6 6 5 5 4 3 3 2 3 2 2 2 0 1 1 1 1 2 2 2 3 3 3 4 4 4
11 11 11 10 9 8 8 9 8 8 8 8 7 7 6 5 5 5 4 4 4 3 3 2 1 1 1 1 1 1 2 2 3 3 3 4 4 5 5 6 6 6 6
10 10 10 10 8 7 7 7 7 6 7 6 6 5 5 5 4 4 3 3 3 3 2 1 1 2 2 2 3 3 3 4 4 4 5 6 6 6 7 7 8 8 8
10 9 8 8 8 7 6 5 5 5 5 4 4 4 4 4 4 3 2 3 3 2 2 2 2 3 3 4 4 5 5 6 6 7 7 8 7 8 8 8 9 9 9
10 8 7 7 6 6 5 4 4 3 3 3 3 2 2 2 2 2 3 3 3 3 3 3 3 4 4 5 6 7 7 8 8 9 8 9 9 10 10 10 10 10 11
11 9 8 6 6 5 5 5 4 3 3 2 2 1 1 1 1 2 2 3 3 4 5 5 6 6 7 7 8 8 9 9 9 9 9 10 11 11 11 11 12 12 13
12 10 9 7 6 5 5 5 4 3 3 2 2 2 2 2 2 3 3 3 4 5 6 7 7 7 8 9 9 10 9 9 10 10 10 11 11 12 13 13 13 14 14
11 11 10 9 8 6 6 5 4 4 3 3 2 2 3 3 3 4 5 6 6 7 7 7 7 8 9 9 10 10 11 12 12 12 12 13 13 13 13 14 14 15 16
11 10 10 9 8 7 7 6 5 4 4 4 3 2 3 3 4 6 7 7 8 8 8 9 9 9 10 10 10 10 11 11 12 13 14 14 14 14 15 15 15 16 15
11 10 9 9 8 7 7 6 6 4 4 4 4 4 4 5 6 7 8 8 8 9 9 10 10 10 10 10 10 11 11 10 11 12 14 15 15 15 15 15 16 16 16
12 10 8 8 8 7 7 7 6 6 5 5 5 5 5 7 7 8 9 9 9 10 10 10 10 10 11 11 11 11 11 11 12 12 13 14 15 16 15 16 16 16 16
Wind_Direction
68 75 77 71 70 70 70 73 75 77 73 70 71 74 78 82 82 86 87 93 94 93 95 100 98 98 99 106 110 115 120 123 117 121 123 122 120 120 116 115 115 114 113
71 76 76 72 73 72 72 73 76 78 76 75 74 75 81 88 88 88 87 91 95 95 93 93 92 95 94 97 104 112 116 117 117 118 117 118 119 120 118 117 115 113 113
74 75 76 75 73 73 71 72 74 77 77 78 78 78 83 88 87 88 90 93 95 97 96 93 93 93 93 98 105 107 112 115 116 115 114 116 118 119 119 119 115 111 110
77 77 77 77 73 74 75 72 70 75 76 78 79 79 81 84 86 89 94 94 95 98 98 99 96 95 96 101 107 108 111 115 115 114 115 117 118 118 119 119 118 114 111
80 79 80 79 76 73 75 77 75 76 77 77 78 79 81 82 85 90 94 94 95 96 100 101 100 100 102 105 109 111 111 112 114 115 114 114 117 119 120 118 116 115 114
82 81 79 77 74 72 74 77 76 77 76 76 77 80 82 83 85 86 91 94 96 98 102 105 106 105 106 108 111 113 114 115 117 113 110 111 113 116 114 111 111 113 117
82 85 82 75 72 71 73 78 77 77 76 77 78 78 79 82 84 84 86 90 96 101 103 103 106 109 109 110 112 115 118 118 114 109 109 109 111 113 114 112 111 109 112
79 82 82 78 75 74 74 78 79 80 78 79 81 80 81 83 85 83 85 87 93 99 101 104 106 107 106 109 112 113 115 114 111 110 111 112 114 116 116 113 110 110 110
75 76 77 76 77 76 75 76 78 79 78 80 83 84 85 85 86 85 88 88 90 94 99 103 107 106 106 105 103 105 109 110 112 114 116 116 116 116 115 114 112 108 109
72 73 74 75 78 79 77 77 81 81 80 82 86 85 84 83 85 86 88 89 90 92 96 101 103 104 103 101 99 98 99 101 109 115 120 117 113 114 116 117 114 108 109
69 72 74 76 78 79 80 83 84 84 84 87 89 90 86 85 87 90 91 92 91 93 97 102 104 103 102 102 98 94 94 93 96 106 113 117 117 117 119 116 120 113 110
67 71 76 78 79 81 81 83 84 86 87 87 88 91 91 89 91 92 94 95 93 96 101 104 104 103 103 104 101 94 90 93 96 97 104 116 122 116 114 115 128 135 128
67 69 73 77 77 79 83 84 85 86 86 86 89 92 94 95 95 94 94 94 94 98 101 104 102 100 98 99 100 93 84 90 98 100 105 122 124 121 124 128 118 164 287
66 67 71 73 72 75 82 86 85 86 85 85 88 91 94 96 94 94 94 93 93 96 99 102 99 98 94 95 105 104 92 83 81 96 105 114 131 166 188 228 244 279 297
65 65 67 69 69 72 81 86 86 85 84 84 85 89 90 90 91 95 95 91 90 95 99 98 94 89 75 63 90 123 108 48 79 80 96 121 242 253 268 278 282 288 284
65 63 64 65 68 72 79 82 81 83 83 83 86 89 90 90 88 88 92 93 93 95 97 94 80 63 57 50 44 70 295 292 286 284 288 286 286 279 276 279 283 285 285
60 61 62 65 68 71 74 78 79 79 80 79 81 84 86 87 89 88 83 81 85 84 89 96 65 42 15 1 356 335 306 297 281 278 285 286 288 286 284 279 280 284 284
56 55 58 59 62 66 66 71 76 76 73 73 77 79 80 80 78 77 66 60 66 60 49 23 321 311 305 306 312 310 299 289 287 284 287 287 288 287 287 283 282 282 281
50 51 51 55 58 61 63 66 71 74 70 65 68 76 79 75 66 68 56 43 36 29 15 356 324 303 293 291 293 294 292 290 289 287 288 287 288 290 291 291 288 285 285
44 47 46 49 48 47 50 52 58 70 66 54 56 65 78 64 48 28 28 17 6 359 350 339 328 308 296 293 290 291 292 291 289 287 288 285 284 287 290 289 287 288 287
36 43 41 42 40 35 33 39 42 48 39 24 9 1 346 2 6 6 5 354 343 337 333 324 315 310 302 295 293 294 292 289 286 284 286 286 283 284 287 287 286 287 289
31 38 35 32 29 27 31 28 27 21 13 359 337 334 318 307 302 311 325 324 322 321 317 315 314 312 305 299 293 289 290 287 286 284 286 291 291 288 285 286 286 286 287
26 27 25 24 21 19 15 11 3 6 2 356 341 314 309 307 306 302 303 307 308 309 307 308 310 312 310 306 299 290 287 286 285 287 287 287 287 287 286 286 287 288 286
15 15 15 16 15 13 9 6 2 1 360 354 336 321 309 310 305 305 303 301 300 301 304 305 303 306 305 305 302 296 291 291 290 288 286 286 286 285 285 286 289 292 287
11 7 8 11 12 10 7 6 2 353 351 346 333 323 320 317 311 307 305 303 299 298 301 304 305 303 300 301 300 297 297 295 293 290 287 288 290 289 287 287 290 290 287
9 6 6 7 9 8 4 358 354 351 346 342 331 325 321 315 312 307 305 302 298 299 301 302 302 301 298 297 298 296 295 295 296 295 292 291 292 291 289 287 286 287 287
Height
5870 5869 5869 5868 5867 5867 5866 5865 5866 5867 5867 5867 5867 5867 5867 5867 5868 5868 5868 5869 5869 5869 5870 5870 5871 5871 5871 5870 5871 5873 5875 5877 5878 5880 5881 5883 5884 5885 5886 5887 5888 5889 5889
5872 5871 5870 5870 5869 5869 5868 5868 5868 5868 5869 5869 5869 5869 5869 5869 5869 5870 5871 5871 5871 5872 5872 5873 5873 5873 5873 5872 5873 5875 5877 5878 5879 5881 5882 5884 5885 5886 5887 5888 5889 5890 5890
5874 5873 5872 5871 5871 5870 5870 5870 5869 5870 5870 5870 5871 5871 5871 5871 5872 5872 5873 5873 5873 5874 5875 5875 5875 5875 5875 5876 5876 5877 5879 5880 5881 5883 5884 5885 5886 5888 5889 5889 5890 5891 5891
5875 5874 5873 5873 5873 5872 5872 5871 5871 5871 5871 5871 5872 5873 5873 5873 5874 5874 5875 5875 5876 5876 5877 5877 5877 5878 5878 5878 5879 5880 5881 5882 5884 5885 5886 5887 5888 5889 5890 5891 5891 5892 5892
5877 5876 5875 5875 5875 5874 5874 5873 5873 5873 5873 5873 5874 5875 5875 5875 5876 5876 5877 5877 5878 5878 5879 5879 5880 5880 5881 5881 5882 5883 5884 5885 5886 5887 5888 5888 5889 5890 5891 5892 5892 5892 5893
5879 5878 5877 5876 5876 5876 5876 5875 5875 5875 5876 5876 5876 5877 5877 5877 5878 5879 5879 5880 5880 5881 5881 5881 5882 5883 5883 5884 5884 5885 5886 5887 5888 5889 5889 5890 5891 5891 5892 5893 5893 5894 5894
5880 5879 5879 5878 5878 5877 5877 5877 5877 5877 5878 5878 5878 5879 5879 5879 5880 5880 5881 5882 5882 5883 5883 5884 5884 5885 5885 5886 5886 5887 5888 5889 5889 5890 5891 5892 5892 5893 5893 5894 5894 5895 5895
5881 5881 5880 5880 5879 5879 5879 5879 5879 5879 5880 5880 5880 5880 5881 5881 5882 5882 5883 5884 5884 5884 5885 5885 5886 5887 5887 5888 5888 5889 5889 5890 5891 5891 5892 5893 5894 5894 5895 5895 5895 5896 5896
5883 5882 5882 5881 5881 5881 5881 5881 5881 5881 5881 5882 5882 5882 5883 5883 5884 5884 5885 5885 5886 5886 5887 5887 5888 5888 5889 5890 5890 5890 5891 5892 5892 5893 5894 5894 5895 5895 5896 5896 5896 5896 5896
5885 5884 5883 5883 5883 5883 5883 5883 5883 5883 5883 5883 5884 5884 5885 5885 5885 5886 5887 5887 5888 5888 5889 5889 5890 5890 5891 5891 5891 5892 5892 5893 5894 5894 5895 5895 5896 5896 5897 5897 5897 5897 5897
5886 5886 5885 5885 5885 5885 5884 5884 5885 5885 5885 5885 5886 5886 5886 5887 5887 5888 5888 5889 5889 5890 5890 5891 5891 5892 5892 5893 5893 5893 5894 5894 5895 5895 5896 5896 5897 5897 5897 5897 5897 5897 5897
5889 5888 5887 5887 5887 5887 5886 5886 5886 5887 5887 5887 5887 5888 5888 5888 5889 5889 5890 5890 5891 5891 5892 5892 5893 5893 5894 5894 5894 5895 5895 5895 5896 5896 5896 5897 5897 5897 5898 5898 5898 5898 5898
5891 5890 5890 5889 5889 5889 5888 5888 5888 5888 5888 5888 5889 5889 5890 5890 5890 5891 5892 5892 5892 5892 5893 5894 5894 5895 5895 5895 5896 5896 5896 5896 5896 5897 5897 5897 5897 5898 5898 5898 5898 5898 5898
5893 5892 5892 5892 5891 5891 5890 5890 5890 5890 5890 5890 5890 5890 5891 5891 5892 5893 5893 5893 5894 5894 5894 5895 5895 5896 5896 5896 5896 5896 5897 5897 5897 5897 5897 5897 5898 5898 5898 5898 5898 5898 5898
5895 5894 5894 5894 5893 5893 5892 5892 5892 5892 5892 5892 5892 5892 5892 5893 5893 5894 5894 5895 5895 5895 5895 5896 5896 5896 5896 5896 5896 5897 5897 5897 5897 5897 5897 5898 5898 5898 5898 5898 5898 5898 5897
5897 5897 5896 5895 5895 5895 5894 5894 5894 5894 5894 5894 5894 5894 5894 5894 5894 5895 5895 5895 5895 5896 5896 5896 5896 5896 5897 5897 5897 5897 5897 5897 5897 5897 5898 5898 5898 5897 5897 5897 5897 5897 5896
5900 5899 5898 5897 5897 5897 5896 5896 5896 5896 5895 5895 5895 5895 5895 5895 5895 5896 5896 5896 5896 5896 5896 5896 5896 5897 5897 5897 5897 5897 5897 5897 5897 5897 5897 5897 5897 5896 5896 5896 5896 5895 5895
5902 5901 5900 5899 5898 5898 5898 5898 5897 5897 5897 5897 5896 5896 5896 5897 5897 5897 5897 5897 5896 5897 5896 5896 5896 5897 5897 5897 5897 5897 5896 5896 5896 5896 5896 5896 5896 5896 5895 5895 5895 5894 5893
5904 5903 5902 5901 5900 5900 5900 5899 5898 5898 5898 5897 5897 5897 5897 5898 5898 5897 5897 5897 5897 5897 5897 5896 5896 5896 5896 5896 5896 5896 5896 5895 5895 5895 5895 5894 5894 5894 5894 5893 5893 5893 5892
5905 5904 5903 5902 5902 5901 5900 5900 5899 5899 5899 5898 5898 5898 5898 5898 5898 5898 5898 5898 5897 5897 5897 5896 5896 5896 5896 5895 5895 5895 5894 5894 5894 5893 5893 5893 5892 5892 5892 5891 5891 5891 5890
5906 5905 5904 5903 5903 5902 5901 5901 5900 5900 5899 5899 5899 5898 5898 5898 5898 5898 5898 5898 5897 5897 5896 5895 5895 5895 5894 5894 5894 5893 5893 5892 5892 5892 5891 5891 5890 5890 5890 5889 5888 5888 5887
5907 5906 5905 5904 5903 5902 5902 5901 5900 5900 5899 5899 5899 5898 5898 5898 5898 5898 5897 5897 5897 5896 5895 5895 5894 5893 5893 5892 5892 5891 5891 5891 5890 5889 5889 5889 5888 5888 5887 5886 5886 5885 5884
5908 5907 5906 5905 5904 5903 5902 5902 5901 5900 5899 5899 5899 5898 5898 5898 5897 5897 5897 5896 5895 5895 5894 5893 5893 5892 5891 5890 5890 5890 5889 5888 5887 5887 5887 5886 5886 5885 5884 5883 5883 5882 5881
5909 5907 5906 5905 5904 5903 5902 5902 5901 5900 5899 5899 5898 5898 5897 5897 5897 5896 5895 5895 5894 5893 5893 5892 5891 5890 5889 5888 5888 5887 5887 5886 5885 5884 5884 5883 5882 5881 5881 5880 5879 5878 5877
5909 5907 5906 5905 5904 5903 5903 5902 5901 5900 5899 5898 5898 5897 5897 5896 5895 5895 5894 5893 5892 5892 5891 5890 5889 5888 5887 5886 5885 5885 5884 5883 5882 5882 5881 5880 5879 5878 5877 5876 5876 5875 5874
5909 5907 5906 5905 5904 5903 5903 5902 5901 5900 5899 5898 5897 5896 5896 5895 5894 5894 5893 5892 5891 5890 5889 5888 5887 5886 5885 5884 5883 5882 5881 5881 5880 5879 5878 5877 5876 5874 5873 5873 5872 5871 5870